Погода в Ладане

Украина / Черниговская область     50°31′02″N   32°35′10″E
темп.,
°C
ветер,
м/с
пор.,
м/с
влажн.,
%
обл.,
%
осадки,
мм/ч
давл.,
гПа
погр.,
м
27 октября, ср
ср2700:00+4ююз5126220 0.0 1028236
03:00+3ююз512645 0.0 1027243
06:00+2ююз512752 0.0 1026251
09:00+3ююз512790 0.0 1025323
12:00+9юз69670 0.0 1024696
15:00+11зюз56544 0.0 1023870
18:00+8з3559100 0.0 1023108
21:00+6зсз33715 0.0 102434
28 октября, чт
чт2800:00+6з3485100 0.0 102468
03:00+6зюз3591100 0.0 1023100
06:00+5зюз3988100 0.0 1023170
09:00+7зюз51180100 0.0 1022331
12:00+12з686881 0.0 1022535
15:00+11зсз5107691 0.0 1021570
18:00+11зсз41080100 0.0 1021447
21:00+8сз410935 0.0 1023272
29 октября, пт
пт2900:00+7сз3896100 0.0 1024174
03:00+9ссз378797 0.0 1025210
06:00+6с36935 0.0 1027117
09:00+6ссв36865 0.0 1028200
12:00+10всв457125 0.0 1029645
15:00+12всв346226 0.0 1029878
18:00+8всв34785 0.0 103066
21:00+6в36840 0.0 103097
30 октября, сб
сб3000:00+6юв36904 0.0 1031103
03:00+5юв35925 0.0 103188
06:00+5юв35935 0.0 103186
09:00+6юв37885 0.0 1032199
12:00+11ююв57620 0.0 1032530
15:00+13ююв56550 0.0 1031833
18:00+9ююв35700 0.0 103175
21:00+8ююв48730 0.0 1031138
31 октября, вс
вс3100:00+6ююв48760 0.0 1032141
03:00+5ююв38780 0.0 1031125
05:00+4ююв47770 0.0 1031113
08:00+5ююв39750 0.0 1031215
11:00+10ююв58510 0.0 1030555
14:00+12ююв68520 0.0 1027828
17:00+8ююв36680 0.0 102695
20:00+7юв411700 0.0 1026198